Location: Ammerl�gen
(47.2167°N, 9.6000°E)
Time: 13:52:32
(UTC+00:00)

Iridium 4 Rocket - Pass Details

Date: 07 August 2021
Orbit: 583 x 905 km, 86.9° (Epoch: 25 September)

Event Time Altitude Azimuth Distance (km) Brightness Sun altitude
Rises 01:40:49 0° 348° (NNW) 3,499 7.6 -19.7°
Reaches altitude 10° 01:43:31 10° 338° (NNW) 2,578 6.6 -19.4°
Maximum altitude 01:48:29 29° 280° (W) 1,595 4.9 -19.0°
Enters shadow 01:50:10 25° 252° (WSW) 1,738 4.9 -18.8°
